Location: Burtsch�tz
(51.0528°N, 12.1764°E)
Time: 05:37:19
(UTC+00:00)

Aureole 3 Rocket - Pass Details

Date: 29 October 2020
Orbit: 399 x 1739 km, 82.5° (Epoch: 01 December)

Event Time Altitude Azimuth Distance (km) Brightness Sun altitude
Rises 16:19:46 0° 156° (SSE) 2,747 6.3 -5.3°
Reaches altitude 10° 16:21:51 10° 145° (SE) 1,997 5.5 -5.6°
Maximum altitude 16:25:45 31° 83° (E) 1,307 4.2 -6.2°
Drops below altitude 10° 16:30:55 10° 23° (NNE) 2,699 6.0 -6.9°
Sets 16:34:08 0° 15° (NNE) 3,901 6.9 -7.4°
